�������l�o���
Date,Time,MP-1(��Sv/h),MP-2(��Sv/h),MP-3(��Sv/h),MP-4(��Sv/h),MP-5(��Sv/h),MP-6(��Sv/h),MP-7(��Sv/h),MP-8(��Sv/h),����,����(m/s),���J
2024/01/15,00:00,0.519,0.784,0.492,0.996,0.707,0.318,0.564,0.529,��쓌,6.1,��
2024/01/15,00:10,0.519,0.785,0.492,0.995,0.708,0.316,0.564,0.527,��쓌,5.5,��
2024/01/15,00:20,0.520,0.786,0.491,0.995,0.707,0.318,0.566,0.529,��,4.4,��
2024/01/15,00:30,0.521,0.787,0.491,0.994,0.708,0.316,0.565,0.529,��쓌,4.5,��
2024/01/15,00:40,0.519,0.787,0.492,0.993,0.708,0.316,0.566,0.528,��,3.7,��
2024/01/15,00:50,0.520,0.786,0.494,0.994,0.708,0.316,0.565,0.528,��,3.4,��
2024/01/15,01:00,0.520,0.787,0.490,0.993,0.707,0.316,0.564,0.530,��쓌,3.3,��
2024/01/15,01:10,0.519,0.786,0.492,0.995,0.706,0.318,0.566,0.529,��,1.2,��
2024/01/15,01:20,0.520,0.788,0.491,0.993,0.709,0.316,0.563,0.528,��쓌,2.6,��
2024/01/15,01:30,0.518,0.786,0.492,0.994,0.707,0.317,0.565,0.529,��쐼,3.2,��
2024/01/15,01:40,0.519,0.786,0.491,0.994,0.706,0.316,0.565,0.529,��쐼,2.6,��
2024/01/15,01:50,0.520,0.786,0.491,0.992,0.706,0.316,0.564,0.527,��쓌,2.3,��
2024/01/15,02:00,0.521,0.786,0.491,0.994,0.706,0.318,0.566,0.528,��쐼,2.9,��
2024/01/15,02:10,0.519,0.786,0.490,0.993,0.708,0.317,0.566,0.529,��,1.5,��
2024/01/15,02:20,0.519,0.786,0.492,0.993,0.707,0.317,0.566,0.528,�쐼,1.2,��
2024/01/15,02:30,0.519,0.786,0.491,0.992,0.706,0.317,0.565,0.529,�쐼,1.9,��
2024/01/15,02:40,0.519,0.787,0.492,0.995,0.706,0.317,0.564,0.528,���쐼,2.6,��
2024/01/15,02:50,0.519,0.785,0.490,0.993,0.706,0.317,0.565,0.528,���쐼,3.3,��
2024/01/15,03:00,0.518,0.788,0.492,0.995,0.707,0.318,0.565,0.528,���쐼,4.5,��
2024/01/15,03:10,0.519,0.786,0.491,0.993,0.708,0.318,0.566,0.528,���쐼,6.5,��
2024/01/15,03:20,0.519,0.787,0.492,0.995,0.705,0.316,0.565,0.529,��,4.9,��
2024/01/15,03:30,0.518,0.787,0.493,0.995,0.705,0.317,0.565,0.527,���k��,4.9,��
2024/01/15,03:40,0.520,0.786,0.493,0.992,0.706,0.317,0.565,0.528,�k��,2.3,��
2024/01/15,03:50,0.518,0.788,0.491,0.996,0.705,0.317,0.566,0.528,�k�k��,1.8,��
2024/01/15,04:00,0.519,0.785,0.491,0.994,0.708,0.318,0.566,0.527,�k�k��,3.1,��
2024/01/15,04:10,0.518,0.785,0.491,0.993,0.708,0.317,0.567,0.528,�k�k��,3.1,��
2024/01/15,04:20,0.520,0.785,0.491,0.995,0.706,0.317,0.565,0.527,�k��,3.5,��
2024/01/15,04:30,0.518,0.786,0.491,0.993,0.707,0.317,0.565,0.529,���k��,3.1,��
2024/01/15,04:40,0.520,0.788,0.491,0.994,0.707,0.317,0.566,0.528,���k��,5.4,��
2024/01/15,04:50,0.519,0.787,0.492,0.996,0.706,0.317,0.566,0.528,���k��,6.0,��
2024/01/15,05:00,0.520,0.786,0.490,0.995,0.705,0.317,0.566,0.527,��,7.5,��
2024/01/15,05:10,0.519,0.786,0.492,0.993,0.705,0.317,0.565,0.528,���k��,7.3,��
2024/01/15,05:20,0.518,0.786,0.492,0.995,0.706,0.316,0.565,0.528,�k��,6.2,��
2024/01/15,05:30,0.519,0.785,0.491,0.995,0.707,0.316,0.567,0.529,���k��,6.0,��
2024/01/15,05:40,0.519,0.785,0.491,0.998,0.706,0.316,0.566,0.527,���k��,5.7,��
2024/01/15,05:50,0.520,0.784,0.492,0.995,0.706,0.316,0.565,0.528,���k��,6.4,��
2024/01/15,06:00,0.518,0.786,0.491,0.996,0.708,0.317,0.565,0.528,���k��,7.0,��
2024/01/15,06:10,0.520,0.784,0.491,0.994,0.708,0.318,0.566,0.528,�k��,4.6,��
2024/01/15,06:20,0.520,0.786,0.491,0.996,0.706,0.316,0.566,0.528,�k��,5.5,��
2024/01/15,06:30,0.518,0.786,0.491,0.996,0.708,0.317,0.566,0.529,�k��,5.8,��
2024/01/15,06:40,0.519,0.783,0.491,0.995,0.707,0.317,0.563,0.529,�k��,5.7,��
2024/01/15,06:50,0.521,0.786,0.492,0.995,0.707,0.316,0.565,0.529,�k��,5.2,��
2024/01/15,07:00,0.520,0.787,0.492,0.994,0.708,0.317,0.566,0.528,�k��,6.5,��
2024/01/15,07:10,0.518,0.786,0.491,0.995,0.709,0.316,0.564,0.528,�k��,6.1,��
2024/01/15,07:20,0.520,0.784,0.491,0.996,0.706,0.316,0.565,0.527,�k��,6.8,��
2024/01/15,07:30,0.519,0.784,0.491,0.994,0.706,0.317,0.566,0.529,�k��,6.1,��
2024/01/15,07:40,0.518,0.784,0.492,0.995,0.707,0.316,0.565,0.528,�k��,4.8,��
2024/01/15,07:50,0.520,0.783,0.493,0.996,0.705,0.315,0.565,0.528,�k��,4.8,��
2024/01/15,08:00,0.519,0.786,0.493,0.996,0.706,0.316,0.567,0.527,���k��,4.5,��
2024/01/15,08:10,0.518,0.786,0.489,0.994,0.707,0.317,0.567,0.529,�k��,4.4,��
2024/01/15,08:20,0.518,0.786,0.491,0.996,0.705,0.316,0.566,0.527,�k��,3.9,��
2024/01/15,08:30,0.518,0.785,0.491,0.994,0.705,0.315,0.567,0.527,���k��,4.3,��
2024/01/15,08:40,0.519,0.786,0.490,0.995,0.706,0.316,0.565,0.528,���k��,6.8,��
2024/01/15,08:50,0.518,0.786,0.491,0.994,0.707,0.316,0.566,0.528,��,7.3,��
2024/01/15,09:00,0.519,0.787,0.490,0.994,0.705,0.316,0.567,0.528,���k��,8.9,��
2024/01/15,09:10,0.519,0.786,0.491,0.994,0.706,0.316,0.567,0.526,���k��,10.8,��
2024/01/15,09:20,0.519,0.787,0.490,0.996,0.706,0.317,0.566,0.527,��,7.4,��
2024/01/15,09:30,0.520,0.785,0.491,0.994,0.708,0.316,0.567,0.529,��,6.5,��
2024/01/15,09:40,0.518,0.786,0.492,0.997,0.706,0.316,0.566,0.528,���k��,8.3,��
2024/01/15,09:50,0.519,0.786,0.492,0.995,0.707,0.315,0.565,0.529,���k��,9.9,��
2024/01/15,10:00,0.517,0.785,0.489,0.997,0.706,0.317,0.567,0.528,���k��,7.8,��
2024/01/15,10:10,0.518,0.786,0.490,0.995,0.706,0.316,0.565,0.529,���k��,8.9,��
2024/01/15,10:20,0.520,0.784,0.489,0.997,0.706,0.316,0.564,0.529,��,9.7,��
2024/01/15,10:30,0.519,0.783,0.490,0.997,0.708,0.315,0.565,0.530,���k��,10.5,��
2024/01/15,10:40,0.518,0.785,0.490,0.993,0.707,0.316,0.566,0.530,��,7.5,��
2024/01/15,10:50,0.519,0.784,0.490,0.997,0.707,0.317,0.565,0.530,���k��,2.5,��
2024/01/15,11:00,0.519,0.785,0.491,0.996,0.708,0.316,0.565,0.530,�k��,3.3,��
2024/01/15,11:10,0.518,0.782,0.491,0.999,0.709,0.316,0.563,0.528,���k��,5.9,��
2024/01/15,11:20,0.519,0.784,0.489,0.994,0.710,0.316,0.563,0.530,���k��,4.6,��
2024/01/15,11:30,0.518,0.784,0.491,0.998,0.709,0.316,0.565,0.530,���k��,5.1,��
2024/01/15,11:40,0.520,0.785,0.493,0.996,0.709,0.316,0.565,0.531,�k��,5.6,��
2024/01/15,11:50,0.517,0.785,0.492,0.996,0.708,0.316,0.565,0.529,���k��,9.2,��
2024/01/15,12:00,0.518,0.785,0.490,0.996,0.708,0.315,0.566,0.531,���k��,10.5,��
2024/01/15,12:10,0.518,0.784,0.490,0.995,0.709,0.316,0.566,0.530,���k��,5.1,��
2024/01/15,12:20,0.519,0.786,0.490,0.996,0.706,0.317,0.566,0.530,���k��,6.1,��
2024/01/15,12:30,0.519,0.785,0.491,0.996,0.707,0.316,0.567,0.531,���k��,7.7,��
2024/01/15,12:40,0.519,0.784,0.491,0.997,0.706,0.316,0.567,0.532,���k��,10.5,��
2024/01/15,12:50,0.517,0.787,0.491,0.995,0.707,0.315,0.568,0.531,���k��,12.5,��
2024/01/15,13:00,0.517,0.784,0.490,0.997,0.708,0.317,0.565,0.531,���k��,12.2,��
2024/01/15,13:10,0.519,0.783,0.492,0.997,0.708,0.317,0.567,0.531,���k��,13.1,��
2024/01/15,13:20,0.518,0.785,0.492,0.996,0.709,0.316,0.568,0.531,���k��,9.6,��
2024/01/15,13:30,0.517,0.785,0.491,0.997,0.708,0.316,0.566,0.529,��,10.5,��
2024/01/15,13:40,0.517,0.788,0.492,0.996,0.708,0.317,0.567,0.529,���k��,7.1,��
2024/01/15,13:50,0.518,0.784,0.492,0.996,0.709,0.316,0.567,0.530,���k��,7.6,��
2024/01/15,14:00,0.516,0.787,0.492,0.998,0.708,0.316,0.567,0.530,���k��,7.9,��
2024/01/15,14:10,0.515,0.782,0.492,0.997,0.709,0.317,0.568,0.530,���k��,8.2,��
2024/01/15,14:20,0.520,0.783,0.491,0.997,0.712,0.317,0.566,0.529,���k��,6.5,��
2024/01/15,14:30,0.519,0.784,0.490,0.997,0.710,0.315,0.568,0.530,��,5.1,��
2024/01/15,14:40,0.520,0.784,0.491,0.999,0.707,0.316,0.566,0.531,���k��,8.0,��
2024/01/15,14:50,0.520,0.784,0.491,0.995,0.711,0.315,0.567,0.532,�k��,7.6,��
2024/01/15,15:00,0.519,0.785,0.491,0.997,0.708,0.316,0.567,0.534,���k��,9.4,��
2024/01/15,15:10,0.521,0.784,0.492,0.995,0.710,0.315,0.566,0.532,���k��,11.6,��
2024/01/15,15:20,0.519,0.785,0.491,0.998,0.711,0.315,0.567,0.531,���k��,10.3,��
2024/01/15,15:30,0.520,0.787,0.491,0.997,0.709,0.315,0.566,0.531,���k��,10.6,��
2024/01/15,15:40,0.521,0.787,0.493,0.998,0.709,0.316,0.565,0.530,���k��,11.3,��
2024/01/15,15:50,0.520,0.787,0.491,0.998,0.709,0.317,0.567,0.532,���k��,8.3,��
2024/01/15,16:00,0.521,0.788,0.492,0.997,0.707,0.316,0.567,0.530,���k��,10.0,��
2024/01/15,16:10,0.519,0.786,0.492,0.998,0.708,0.316,0.566,0.531,���k��,8.1,��
2024/01/15,16:20,0.521,0.786,0.493,0.998,0.709,0.315,0.565,0.530,���k��,5.1,��
2024/01/15,16:30,0.521,0.787,0.491,0.996,0.709,0.315,0.565,0.531,�k��,4.2,��
2024/01/15,16:40,0.519,0.788,0.492,0.997,0.709,0.315,0.564,0.530,�k,4.2,��
2024/01/15,16:50,0.520,0.787,0.491,0.997,0.708,0.316,0.566,0.532,�k�k��,5.5,��
2024/01/15,17:00,0.519,0.787,0.491,0.998,0.710,0.316,0.566,0.532,�k�k��,4.2,��
2024/01/15,17:10,0.519,0.787,0.490,0.997,0.709,0.314,0.565,0.530,�k,4.2,��
2024/01/15,17:20,0.519,0.788,0.491,0.997,0.710,0.313,0.565,0.530,�k�k��,3.9,��
2024/01/15,17:30,0.520,0.786,0.491,0.995,0.710,0.315,0.565,0.529,�k�k��,4.0,��
2024/01/15,17:40,0.519,0.787,0.490,0.998,0.709,0.316,0.565,0.530,�k�k��,4.7,��
2024/01/15,17:50,0.518,0.788,0.491,0.995,0.708,0.316,0.564,0.530,�k,4.2,��
2024/01/15,18:00,0.518,0.789,0.491,0.997,0.710,0.316,0.566,0.529,�k,4.0,��
2024/01/15,18:10,0.518,0.786,0.490,0.997,0.709,0.315,0.566,0.528,�k�k��,5.1,��
2024/01/15,18:20,0.519,0.788,0.490,0.996,0.709,0.316,0.565,0.528,�k�k��,4.9,��
2024/01/15,18:30,0.519,0.785,0.490,0.998,0.710,0.315,0.565,0.530,�k�k��,5.0,��
2024/01/15,18:40,0.519,0.787,0.492,0.996,0.710,0.314,0.565,0.528,�k�k��,6.2,��
2024/01/15,18:50,0.518,0.786,0.491,0.995,0.709,0.315,0.565,0.528,�k�k��,7.1,��
2024/01/15,19:00,0.517,0.786,0.490,0.997,0.707,0.315,0.565,0.529,�k��,6.3,��
2024/01/15,19:10,0.519,0.787,0.491,0.996,0.709,0.314,0.564,0.528,�k��,5.9,��
2024/01/15,19:20,0.521,0.787,0.490,0.996,0.710,0.315,0.564,0.528,�k�k��,5.3,��
2024/01/15,19:30,0.520,0.786,0.489,0.997,0.708,0.314,0.566,0.529,�k�k��,5.3,��
2024/01/15,19:40,0.517,0.787,0.490,0.997,0.709,0.313,0.564,0.529,�k��,5.6,��
2024/01/15,19:50,0.518,0.784,0.489,0.998,0.709,0.313,0.565,0.528,�k��,6.5,��
2024/01/15,20:00,0.519,0.786,0.491,0.996,0.711,0.313,0.564,0.528,�k��,7.6,��
2024/01/15,20:10,0.519,0.786,0.490,0.999,0.707,0.313,0.565,0.528,�k��,5.8,��
2024/01/15,20:20,0.518,0.785,0.489,0.998,0.707,0.315,0.565,0.529,�k��,5.2,��
2024/01/15,20:30,0.518,0.787,0.490,0.996,0.709,0.315,0.564,0.528,�k��,6.1,��
2024/01/15,20:40,0.519,0.786,0.489,0.995,0.709,0.314,0.564,0.527,�k��,4.3,��
2024/01/15,20:50,0.520,0.787,0.490,0.996,0.710,0.314,0.562,0.528,�k�k��,4.3,��
2024/01/15,21:00,0.519,0.786,0.491,0.996,0.708,0.315,0.564,0.528,�k�k��,5.2,��
2024/01/15,21:10,0.520,0.788,0.491,0.997,0.709,0.316,0.566,0.529,�k�k��,5.2,��
2024/01/15,21:20,0.516,0.786,0.490,0.996,0.709,0.315,0.566,0.529,�k�k��,5.1,��
2024/01/15,21:30,0.520,0.787,0.491,0.997,0.708,0.315,0.563,0.527,�k�k��,4.0,��
2024/01/15,21:40,0.517,0.786,0.491,0.998,0.709,0.315,0.564,0.528,�k�k��,4.8,��
2024/01/15,21:50,0.519,0.787,0.490,0.996,0.708,0.313,0.563,0.529,�k�k��,4.6,��
2024/01/15,22:00,0.519,0.786,0.491,0.997,0.708,0.314,0.564,0.527,�k�k��,5.6,��
2024/01/15,22:10,0.518,0.786,0.489,0.996,0.709,0.315,0.564,0.527,�k�k��,5.1,��
2024/01/15,22:20,0.518,0.786,0.490,0.996,0.706,0.315,0.564,0.527,�k�k��,5.8,��
2024/01/15,22:30,0.518,0.787,0.491,0.996,0.707,0.314,0.565,0.527,�k��,7.1,��
2024/01/15,22:40,0.519,0.787,0.491,0.997,0.710,0.317,0.565,0.528,�k��,6.4,��
2024/01/15,22:50,0.517,0.787,0.490,0.997,0.708,0.315,0.564,0.527,�k��,6.9,��
2024/01/15,23:00,0.519,0.786,0.489,0.996,0.709,0.314,0.565,0.527,���k��,7.2,��
2024/01/15,23:10,0.519,0.787,0.487,0.996,0.709,0.313,0.565,0.528,���k��,5.9,��
2024/01/15,23:20,0.518,0.788,0.488,0.994,0.709,0.314,0.564,0.527,���k��,6.7,��
2024/01/15,23:30,0.518,0.786,0.489,0.994,0.708,0.314,0.565,0.527,���k��,6.2,��
2024/01/15,23:40,0.518,0.787,0.488,0.996,0.707,0.312,0.564,0.526,�k��,4.9,��
2024/01/15,23:50,0.518,0.787,0.487,0.996,0.710,0.316,0.566,0.528,�k��,5.6,��
